Location: Newark
(52.3500°N, 175.9667°E)
Time: 10:07:20
(UTC+00:00)

Transit 4A - Pass Details

Date: 26 April 2021
Orbit: 870 x 974 km, 66.8° (Epoch: 07 May)

Event Time Altitude Azimuth Distance (km) Brightness Sun altitude
Rises 12:07:32 0° 245° (WSW) 3,607 - -24.0°
Exits shadow 12:09:34 - 250° (WSW) 2,885 10.3 -24.0°
Reaches altitude 10° 12:10:15 10° 253° (WSW) 2,650 10.1 -24.0°
Maximum altitude 12:16:04 42° 323° (NW) 1,292 9.0 -24.0°
Drops below altitude 10° 12:21:46 10° 34° (NE) 2,590 11.0 -23.9°
Sets 12:24:24 0° 42° (NE) 3,518 11.7 -23.9°
